Regional Weather Roundup
Issued by NWS

Home | Current Version | Previous Version | Text Only | Print | Product List | Glossary Off
Versions: 1 2 3 4 5 6 7 8 9 10 11 12 13 14 15 16 17 18 19 20 21 22 23 24 25 26 27 28 29 30 31 32 33 34 35 36 37 38 39 40 41 42 43 44 45 46 47 48 49 50

000
ASUS43 KLOT 192308
RWRIL

ILLINOIS REGIONAL WEATHER ROUNDUP
NATIONAL WEATHER SERVICE CHICAGO/ROMEOVILLE IL
600 PM CDT SAT AUG 19 2017

NOTE: "FAIR" INDICATES FEW OR NO CLOUDS BELOW 12,000 FEET WITH NO
SIGNIFICANT WEATHER AND/OR OBSTRUCTIONS TO VISIBILITY.

* THESE STATIONS ARE NOT UNDER NWS QUALITY CONTROL. THEY ALSO MAY NOT
  REPORT WEATHER SUCH AS PRECIPITATION OR FOG.

ILZ001-002-007-009-015-016-024-200000-
NORTHWEST ILLINOIS

CITY           SKY/WX    TMP DP  RH WIND       PRES   REMARKS
MOLINE         SUNNY     81  61  50 SE5       29.94S HX  82
STERLING*      MOSUNNY   79  63  57 S5        29.96S HX  80
SAVANNA*       SUNNY     81  63  53 S6        29.95S HX  82
$$

ILZ003-004-008-010-011-017-018-200000-
NORTH CENTRAL ILLINOIS

CITY           SKY/WX    TMP DP  RH WIND       PRES   REMARKS
ROCKFORD       MOSUNNY   79  61  53 S7        29.97S HX  80
FREEPORT*      SUNNY     78  60  54 S5        29.98S
ROCHELLE*      SUNNY     78  61  54 CALM      29.97S HX  80
DE KALB*       PTSUNNY   78  60  53 W3        29.98S HX  80
PERU*          SUNNY     79  59  51 SW5       29.97R HX  80
$$

ILZ005-006-012>014-019>023-200000-
NORTHEAST ILLINOIS

CITY           SKY/WX    TMP DP  RH WIND       PRES   REMARKS
CHICAGO-OHARE  MOSUNNY   82  56  40 E7        29.94S HX  82
CHICAGO-MIDWAY MOSUNNY   81  54  39 E10       29.94S HX  81
AURORA         SUNNY     79  64  60 NW5       29.97R HX  81
LANSING*       SUNNY     80  52  37 SE7       29.95S HX  80
JOLIET*        SUNNY     82  60  46 SW5       29.95S HX  83
WAUKEGAN       SUNNY     75  62  64 SE6       29.95S
DUPAGE AIRPORT SUNNY     80  62  54 W7        29.95R HX  81
KANKAKEE*      SUNNY     81  58  45 CALM      29.95F HX  81
WHEELING       SUNNY     79  59  50 E8        29.96S HX  80
MORRIS*        SUNNY     80  57  46 CALM      29.94S HX  80
ROMEOVILLE*    SUNNY     80  56  44 W3        29.95S HX  80
NORTHERLY ISL    N/A     76  60  57 E8          N/A
$$

LMZ740>746-200000-
SOUTHERN LAKE MICHIGAN

STATION/POSITION SKY/WX   TEMP    WIND        PRES    VSBY  WAVE
                          AIR SEA DIR/SP/G                  HT/PER
                          (F)     (DEG/KT/KT) (MB)    (MI)  (FT/S)
SOUTHERN BUOY              72 73  210/  6/  8 1014.4          1
WILMETTE HARBOR            74 74  140/  8/ 10   N/A           1/ 2
HARRISON CRIB              75     120/  8/  9   N/A
CALUMET HARBOR             75      90/  8/ 11 1013.8F
BURNS HARBOR               75      50/  7/  8 1015.2
MICHIGAN CITY              72      30/  5/  6   N/A
MICHIGAN CITY 6N           73 76   80/  6/  6   N/A           1/ 4
ST. JOSEPH                 73 80  300/  4/  6 1014.7          1/ 4
$$

ILZ025>027-034>036-040-047-049-050-058-095>099-200000-
WEST-CENTRAL ILLINOIS

CITY           SKY/WX    TMP DP  RH WIND       PRES   REMARKS
QUINCY         MOSUNNY   87  64  46 E7        29.91S HX  88
GALESBURG*     SUNNY     81  64  54 CALM      29.96S HX  82
MACOMB*        SUNNY     81  67  62 E3        29.96S HX  83
JACKSONVILLE*  SUNNY     86  62  43 W3        29.93R HX  86
PITTSFIELD*    SUNNY     87  69  55 E3        29.93S HX  91
$$

ILZ028>032-037-038-041>044-048-051>054-059>061-200000-
CENTRAL ILLINOIS

CITY           SKY/WX    TMP DP  RH WIND       PRES   REMARKS
PONTIAC        SUNNY     82  62  50 CALM      29.96S HX  82
BLOOMINGTON    SUNNY     81  65  58 NE7       29.96S HX  83
DECATUR        MOSUNNY   83  70  64 N5        29.94R HX  87
PEORIA         SUNNY     85  61  44 N6        29.94S HX  85
LACON*         SUNNY     81  60  49 NE3       29.94S HX  81
LINCOLN*       MOSUNNY   84  69  60 N6        29.94S HX  87
SPRINGFIELD    SUNNY     87  71  58 N5        29.93S HX  93
TAYLORVILLE    SUNNY     85  67  55 CALM      29.94R HX  88
$$

ILZ033-039-045-046-055>057-062-063-200000-
EAST-CENTRAL ILLINOIS

CITY           SKY/WX    TMP DP  RH WIND       PRES   REMARKS
CHAMPAIGN      SUNNY     86  64  47 VRB5      29.95R HX  87
RANTOUL*       MOSUNNY   85  65  51 CALM      29.94F HX  87
MATTOON        PTSUNNY   85  69  58 N6        29.92S HX  89
PARIS*         MOSUNNY   84  69  60 N3        29.94S HX  88
$$

ILZ079-100>102-200000-
SOUTHWEST ILLINOIS

CITY           SKY/WX    TMP DP  RH WIND       PRES   REMARKS
ALTON          MOSUNNY   86  70  58 VRB5      29.93  HX  90
BELLEVILLE     SUNNY     88  68  52 S3        29.92S HX  91
CAHOKIA*       PTSUNNY   94  64  37 VRB5      29.90F HX  95
SPARTA*        SUNNY     88  67  49 CALM      29.93S HX  91
$$

ILZ064>066-069>071-074>076-080>082-084>086-088>090-092>094-200000-
SOUTH-CENTRAL ILLINOIS

CITY           SKY/WX    TMP DP  RH WIND       PRES   REMARKS
CARBONDALE     SUNNY     88  70  55 CALM      29.93S HX  93
CAIRO*         SUNNY     90  70  52 CALM      29.91F HX  95
EFFINGHAM*     SUNNY     85  70  59 SW3       29.94S HX  90
MARION         SUNNY     90  70  51 N6        29.94S HX  95
MT. VERNON       N/A     90  68  48 CALM      29.93S HX  94
CENTRALIA*     SUNNY     89  69  52 CALM      29.92S HX  93
SALEM*         SUNNY     89  64  43 CALM      29.93S HX  90
METROPOLIS*    SUNNY     92  67  43 CALM      29.93S HX  94
$$

ILZ067-068-072-073-078-083-087-091-200000-
SOUTHEAST ILLINOIS

CITY           SKY/WX    TMP DP  RH WIND       PRES   REMARKS
LAWRENCEVILLE  CLOUDY    85  69  58 NE9       29.92S HX  89
FLORA*         PTSUNNY   88  71  57 SW6       29.92S HX  94
FAIRFIELD*     SUNNY     87  70  56 S3        29.92S HX  92
HARRISBURG*    SUNNY     89  70  54 NW5       29.93S HX  94
ROBINSON*      SUNNY     80  71  75 E5        29.93F HX  84
CARMI*         SUNNY     86  74  67 CALM      29.92S HX  94
$$

ABBREVIATIONS USED IN REMARKS
   TC - TEMPERATURE IN CELSIUS
  WCI - WIND CHILL INDEX
   HX - HEAT INDEX
  VSB - VISIBILITY
$$





USA.gov is the U.S. government's official web portal to all federal, state and local government web resources and services.